This is the latest recevied weather packets stored in our database for station/object W3TMB. If no packets are shown the sender has not sent any weather packets the latest 10 day(s).
| Time | Temp. | Humidity | Pressure | Rain* | Wind** | Luminosity | Snow |
|---|---|---|---|---|---|---|---|
| 1777845745 | 15.56° C | 38% | 1009.2 hPa | 0 mm | - | 76 W/m² | - |
| 1777845441 | 15.56° C | 37% | 1009.3 hPa | 0 mm | - | 68 W/m² | - |
| 1777845139 | 15.56° C | 36% | 1009.6 hPa | 0 mm | - | 190 W/m² | - |
| 1777844837 | 15.56° C | 37% | 1009.4 hPa | 0 mm | - | 143 W/m² | - |
| 1777844533 | 15.56° C | 37% | 1009.1 hPa | 0 mm | - | 140 W/m² | - |
| 1777844231 | 15.56° C | 37% | 1009.2 hPa | 0 mm | - | 130 W/m² | - |
| 1777843928 | 15.56° C | 37% | 1009.5 hPa | 0 mm | - | 118 W/m² | - |
| 1777843625 | 16.11° C | 36% | 1009.1 hPa | 0 mm | - | 124 W/m² | - |
| 1777843323 | 16.67° C | 36% | 1009.2 hPa | 0 mm | - | 142 W/m² | - |
| 1777843020 | 16.67° C | 36% | 1009.3 hPa | 0 mm | - | 436 W/m² | - |
| 1777842715 | 16.11° C | 37% | 1009.2 hPa | 0 mm | - | 425 W/m² | - |
| 1777842412 | 15.56° C | 37% | 1009.1 hPa | 0 mm | - | 203 W/m² | - |
| 1777842109 | 15.56° C | 36% | 1009 hPa | 0 mm | - | 163 W/m² | - |
| 1777841804 | 16.11° C | 35% | 1009 hPa | 0 mm | - | 183 W/m² | - |
| 1777841501 | 16.11° C | 35% | 1009.1 hPa | 0 mm | - | 200 W/m² | - |
| 1777841197 | 15.56° C | 37% | 1009.2 hPa | 0 mm | - | 452 W/m² | - |
| 1777840895 | 16.11° C | 35% | 1009.4 hPa | 0 mm | - | 158 W/m² | - |
| 1777840592 | 16.11° C | 36% | 1009.1 hPa | 0 mm | - | 448 W/m² | - |
| 1777840290 | 16.11° C | 35% | 1009.3 hPa | 0 mm | - | 338 W/m² | - |
| 1777839987 | 16.67° C | 35% | 1009.3 hPa | 0 mm | - | 575 W/m² | - |
| 1777839685 | 16.11° C | 36% | 1009.3 hPa | 0 mm | - | 596 W/m² | - |
| 1777839383 | 16.11° C | 37% | 1009.1 hPa | 0 mm | - | 429 W/m² | - |
| 1777839080 | 16.11° C | 36% | 1009.6 hPa | 0 mm | - | 254 W/m² | - |
| 1777838776 | 16.11° C | 35% | 1009.4 hPa | 0 mm | - | 249 W/m² | - |
| 1777838472 | 16.67° C | 36% | 1009.3 hPa | 0 mm | - | 497 W/m² | - |
* Rain latest hour (hover to see other rain measurements)
** Current wind speed in m/s (hover to see current wind gust speed)